Overview Statistics Trail Chart Weather Telemetry Raw packets
 

This is the latest recevied weather packets stored in our database for station/object KQ4WWD. If no packets are shown the sender has not sent any weather packets the latest 10 day(s).

<< 79 80 81 82 83 84 85 >>
Time Temp. Humidity Pressure Rain* Wind** Luminosity Snow
1788033851 35.56° C 58% 1015.9 hPa 0 mm - 492 W/m² -
1788033551 35.56° C 57% 1015.8 hPa 0 mm - 482 W/m² -
1788033251 35° C 56% 1015.9 hPa 0 mm - 527 W/m² -
1788032947 34.44° C 60% 1016.2 hPa 0 mm - 138 W/m² -
1788032646 34.44° C 60% 1016 hPa 0 mm - 133 W/m² -
1788032341 35.56° C 57% 1016.2 hPa 0 mm - 176 W/m² -
1788032037 36.11° C 57% 1016.5 hPa 0 mm - 609 W/m² -
1788031732 36.11° C 57% 1016.4 hPa 0 mm - 637 W/m² -
1788031431 36.67° C 56% 1016.3 hPa 0 mm - 654 W/m² -
1788031127 35.56° C 55% 1016.4 hPa 0 mm - 660 W/m² -
1788030826 36.11° C 55% 1016.4 hPa 0 mm - 610 W/m² -
1788030526 36.11° C 57% 1016.2 hPa 0 mm - 569 W/m² -
1788030221 35.56° C 58% 1016.3 hPa 0 mm - 672 W/m² -
1788029915 35.56° C 57% 1016.2 hPa 0 mm - 692 W/m² -
1788029611 35° C 55% 1016.5 hPa 0 mm - 700 W/m² -
1788029306 35° C 57% 1016.7 hPa 0 mm - 697 W/m² -
1788029005 34.44° C 57% 1016.9 hPa 0 mm - 703 W/m² -
1788028705 36.11° C 58% 1016.7 hPa 0 mm - 692 W/m² -
1788028405 35° C 56% 1016.6 hPa 0 mm - 702 W/m² -
1788028101 35° C 60% 1017 hPa 0 mm - 726 W/m² -
1788027801 35° C 58% 1017.2 hPa 0 mm - 737 W/m² -
1788027501 35° C 57% 1017.1 hPa 0 mm - 746 W/m² -
1788027196 34.44° C 62% 1017.2 hPa 0 mm - 727 W/m² -
1788026895 33.33° C 65% 1017.3 hPa 0 mm - 771 W/m² -
1788026591 33.89° C 63% 1017.4 hPa 0 mm - 242 W/m² -

* Rain latest hour (hover to see other rain measurements)
** Current wind speed in m/s (hover to see current wind gust speed)